STARLINK-35823, 66360

Orbit data source: Space-Track

STARLINK-35823, 66360 is a payload satellite owned by SpaceX/Seattle (US) in LEO that was launched on Thu, 06 Nov 2025 UTC via an FALCON 9 launch vehicle from the Air Force Western Test Range (AFWTR). Payload-class satellites include a variety of spacecraft equipped with specific instruments for various scientific and technological missions. These include communications satellites like Starlink; space stations such as the ISS; scientific satellites like the Hubble; Earth observation satellites from companies like Planet Labs, Umbra, and HawkEye 360; GPS; miniature CubeSats for education and research; and military/defense satellites.

Loading next visibility...
Identifier
66360, 2025-254N
Orbit
LEO
Country
Flag of USUS
Related business
Manufacturer
SpaceX/Seattle
Mission
Operational Commercial Communications
Bus & Motor
STARLINK V2MO, Unknown motor
Mass
575 kg wet, ~530 kg dry
Launch date (UTC)
2025-11-06 (7 months ago)
Launch vehicle
FALCON 9
Launch site
Air Force Western Test Range (AFWTR)
Object type
Payload
Rocket body
Debris
Shape & HBR
Box + 2 Pan, 17.7 m
Radar Cross Section
36.964 m², Large (>1 m²)

Expand to show TLE details & history
Last TLE update: 2 days ago

TLE from 2 days ago
0 STARLINK-35823
1 66360U 25254N   26170.14768189  .00011569  00000-0  40206-3 0  9996
2 66360  53.1578 120.8790 0001173  80.8856 279.2277 15.30204516 34512
Epoch: 2026-06-19T03:32Z
TLE epoch observation values (Epoch: 2026-06-19T03:32:39.715Z)
Latitude
-0.00004°
Longitude
160.33266°
Altitude
475.972 km
Speed
7.629 km/s
True Right ascension
08h 03m 30s
True Declination
0° 00' 00"
Sunlit
Object was in daylight at epoch
Visualization orbit readout
Latitude
Unknown
Longitude
Unknown
Altitude
Unknown
Speed
Unknown
Apparent Right ascension
Unknown
Apparent Declination
Unknown
Sunlit
N/A
Visualization observer readout
Local Sidereal Time
07:16:01
Azimuth
Unknown
Elevation
Unknown
Doppler factor
Unknown
Orbital elements
Apogee altitude
476.262 km
Perigee altitude
474.654 km
Semi-major axis
6,853.595 km
Eccentricity
0.00012
Inclination
53.1578°
RAAN
120.879°
Arg. of periapsis
80.8856°
True anomaly
279.21443°
Mean anomaly
279.2277°
Eccentric anomaly
279.22107°
Mean motion
3.8253 °/min
Orbital period
94.11 mins
BSTAR
0.00040206
Loading maneuver chart data...
Computing Atmospheric mass density...
Loading historical data...
Loading historical data...
Loading historical data...
Loading historical data...
Loading historical data...
Loading historical data...
Loading historical data...

Documentation

Showing up to 5 results
|